Springfield, OH

9:24 PM EST on February 25, 2017 (GMT -0500)
Springfield-Beckley Municipal

Weather History for KSGH - February, 2013

Change the Weather History Date:

Monday, February 25, 2013

  Actual Average (KFFO) Record (KFFO)
Temperature  
Mean Temperature 30 °F -  
Max Temperature 41 °F 42 °F 64 °F (2001)
Min Temperature 18 °F 25 °F 5 °F (2003)
Degree Days  
Heating Degree Days 36    
Moisture  
Dew Point 20 °F    
Average Humidity 72    
Maximum Humidity 89    
Minimum Humidity 49    
Precipitation  
Precipitation 0.00 in - - ()
Sea Level Pressure  
Sea Level Pressure 30.14 in    
Wind  
Wind Speed 6 mph (ENE)    
Max Wind Speed 15 mph    
Max Gust Speed -    
Visibility 6 miles    
Events      
Averages and records for this station are not official NWS values.
T = Trace of Precipitation, MM = Missing Value Source: NWS Daily Summary

Daily Weather History Graph

Daily Weather History Graph

Search for Another Location

Airport or City:

Trip Planner

Search our weather history database for the weather conditions in past years. The results will help you decide how hot, cold, wet, or windy it might be!

Date:

Astronomy

Feb. 25, 2013 Rise Set
Actual Time 7:14 AM EST 6:23 PM EST
Civil Twilight 6:46 AM EST 6:50 PM EST
Nautical Twilight 6:15 AM EST 7:21 PM EST
Astronomical Twilight 5:44 AM EST 7:53 PM EST
Moon 6:35 PM EST (2/25) 6:43 AM EST (2/25)
Length of Visible Light 12h 03m
Length of Day
11h 09m
Full, 100% of the Moon is Illuminated
Feb 25
Full
Feb 25
Full
Mar 4
Last Quarter
Mar 11
New
Mar 19
First Quarter

Hourly Weather History & Observations

Time (EST) Temp. Windchill Dew Point Humidity Pressure Visibility Wind Dir Wind Speed Gust Speed Precip Events Conditions
12:56 AM 21.0 °F - 17.1 °F 85% 30.19 in 6.0 mi Calm Calm - N/A   Clear
1:56 AM 19.0 °F 13.9 °F 16.2 °F 89% 30.19 in 6.0 mi East 3.5 mph - N/A   Clear
2:56 AM 19.0 °F 12.3 °F 16.2 °F 89% 30.18 in 5.0 mi NE 4.6 mph - N/A   Clear
3:56 AM 18.1 °F 11.3 °F 15.1 °F 88% 30.17 in 4.0 mi ENE 4.6 mph - N/A   Clear
4:56 AM 19.0 °F 13.9 °F 16.2 °F 89% 30.19 in 6.0 mi NE 3.5 mph - N/A   Clear
5:56 AM 18.1 °F 12.9 °F 15.1 °F 88% 30.22 in 5.0 mi East 3.5 mph - N/A   Clear
6:56 AM 18.1 °F 11.3 °F 15.1 °F 88% 30.22 in 5.0 mi East 4.6 mph - N/A   Clear
7:56 AM 20.1 °F 12.3 °F 17.1 °F 88% 30.22 in 4.0 mi ENE 5.8 mph - N/A   Clear
8:56 AM 28.0 °F 21.7 °F 22.1 °F 78% 30.22 in 5.0 mi East 5.8 mph - N/A   Haze
9:56 AM 32.9 °F 24.7 °F 23.0 °F 67% 30.21 in 7.0 mi East 10.4 mph - N/A   Clear
10:56 AM 34.9 °F 26.6 °F 22.1 °F 60% 30.20 in 7.0 mi East 11.5 mph - N/A   Clear
11:56 AM 36.9 °F 28.7 °F 23.0 °F 57% 30.20 in 7.0 mi ESE 12.7 mph - N/A   Clear
12:56 PM 36.9 °F 28.2 °F 22.1 °F 55% 30.17 in 7.0 mi ESE 13.8 mph - N/A   Clear
1:56 PM 37.9 °F 29.6 °F 24.1 °F 57% 30.14 in 7.0 mi East 13.8 mph - N/A   Clear
2:56 PM 41.0 °F 33.9 °F 24.1 °F 51% 30.12 in 7.0 mi East 12.7 mph - N/A   Clear
3:56 PM 41.9 °F 34.3 °F 24.1 °F 49% 30.10 in 7.0 mi East 15.0 mph - N/A   Clear
4:56 PM 41.0 °F 33.1 °F 23.0 °F 49% 30.07 in 7.0 mi East 15.0 mph - N/A   Clear
5:56 PM 36.9 °F 30.1 °F 23.0 °F 57% 30.08 in 6.0 mi ENE 9.2 mph - N/A   Haze
6:56 PM 31.1 °F 23.7 °F 22.1 °F 69% 30.09 in 8.0 mi East 8.1 mph - N/A   Clear
7:56 PM 29.1 °F 20.6 °F 22.1 °F 75% 30.06 in 8.0 mi ENE 9.2 mph - N/A   Clear
8:56 PM 29.1 °F 20.0 °F 22.1 °F 75% 30.01 in 7.0 mi ENE 10.4 mph - N/A   Clear
9:56 PM 29.1 °F 20.6 °F 21.0 °F 72% 30.04 in 8.0 mi East 9.2 mph - N/A   Clear
10:56 PM 29.1 °F 20.0 °F 22.1 °F 75% 30.01 in 7.0 mi ENE 10.4 mph - N/A   Clear
11:56 PM 31.1 °F 21.4 °F 22.1 °F 69% 29.99 in 8.0 mi East 12.7 mph - N/A   Clear